CW6427 Weather Reports


Display with metric or nautical units.
time (UTC)temp
F
wind
direction
speed
MPH
gust
MPH
rain 1hr
in
rain 24hr
in
rain mn
in
humidity
%
barometer
mb
20260502210843 42 322 6.0 12.0 0.00 0.20 0.01 72 1013.9
20260502205843 42 327 6.0 11.0 0.00 0.20 0.01 73 1013.9
20260502204843 42 324 6.0 9.0 0.00 0.20 0.01 72 1014.0
20260502203843 42 11 7.0 11.0 0.00 0.20 0.01 71 1014.0
20260502202842 43 355 6.0 12.0 0.00 0.20 0.01 71 1014.2
20260502201843 43 338 5.0 12.0 0.00 0.20 0.01 68 1013.9
20260502195842 43 311 3.0 12.0 0.00 0.20 0.01 65 1014.2
20260502194842 43 304 5.0 10.0 0.00 0.20 0.01 65 1014.1
20260502193842 43 266 6.0 14.0 0.00 0.20 0.01 64 1014.1
20260502192842 43 313 6.0 13.0 0.00 0.20 0.01 64 1014.3
20260502191842 43 294 7.0 18.0 0.00 0.20 0.01 64 1014.3
20260502185841 43 328 0.0 11.0 0.00 0.20 0.01 64 1014.4
20260502184841 43 297 5.0 8.0 0.00 0.20 0.01 63 1014.4
20260502183841 43 287 3.0 11.0 0.00 0.20 0.01 63 1014.3
20260502182841 44 284 3.0 12.0 0.00 0.20 0.01 63 1014.4
20260502181841 44 345 6.0 15.0 0.00 0.20 0.01 64 1014.3
20260502163839 44 275 9.0 11.0 0.00 0.20 0.01 63 1014.6
20260502162909 43 315 1.0 10.0 0.00 0.20 0.01 64 1014.5
20260502161839 42 267 6.0 11.0 0.00 0.20 0.01 65 1014.7
20260502160839 42 28 3.0 13.0 0.00 0.20 0.01 67 1014.6
20260502151908 42 250 4.0 13.0 0.00 0.20 0.01 72 1014.4
20260502150838 42 337 11.0 17.0 0.00 0.20 0.01 73 1014.4
20260502122905 37 303 7.0 10.0 0.00 0.20 0.01 91 1015.1
20260502121905 36 304 10.0 13.0 0.00 0.20 0.01 90 1015.0
20260502120904 36 300 3.0 11.0 0.00 0.20 0.01 91 1015.0
20260502115904 36 313 0.0 11.0 0.00 0.20 0.01 91 1015.0
20260502114904 37 269 2.0 8.0 0.00 0.20 0.01 92 1015.1
20260502113904 37 350 3.0 11.0 0.00 0.20 0.01 92 1015.1
20260502112904 37 320 10.0 13.0 0.00 0.20 0.01 93 1014.9
20260502111904 37 270 1.0 6.0 0.00 0.20 0.01 93 1014.7
20260502110903 37 281 1.0 11.0 0.00 0.20 0.01 93 1014.6
20260502105903 37 292 4.0 10.0 0.00 0.20 0.01 94 1014.5
20260502104903 37 292 4.0 12.0 0.00 0.20 0.01 93 1014.4
20260502103903 37 322 2.0 15.0 0.00 0.20 0.01 94 1014.4
20260502102903 37 292 15.0 15.0 0.00 0.20 0.01 94 1014.2
20260502100902 38 5 2.0 6.0 0.00 0.20 0.01 95 1014.1
20260502090901 37 26 1.0 5.0 0.00 0.20 0.01 96 1013.6
20260502070859 38 218 3.0 5.0 0.00 0.20 0.01 97 1013.6
20260502065859 38 264 2.0 6.0 0.00 0.20 0.01 98 1013.7
20260502062859 37 272 4.0 7.0 0.00 0.20 0.01 98 1013.5
20260502061858 38 171 0.0 4.0 0.00 0.20 0.01 97 1013.7
20260502055858 38 20 0.0 0.0 0.00 0.20 0.01 97 1013.7
20260502054858 38 20 0.0 2.0 0.00 0.20 0.01 97 1013.8
20260502053858 38 20 0.0 3.0 0.01 0.20 0.01 97 1013.8
20260502052858 38 22 0.0 0.0 0.01 0.20 0.01 97 1014.0
20260502051858 38 22 0.0 2.0 0.01 0.20 0.01 97 1014.1
20260502050857 38 355 0.0 3.0 0.01 0.20 0.01 97 1014.1
20260502045857 38 349 1.0 6.0 0.01 0.20 0.01 97 1014.1
20260502044857 38 331 3.0 8.0 0.01 0.20 0.01 97 1014.2
20260502043857 38 326 5.0 5.0 0.00 0.19 0.00 97 1014.1
20260502042856 38 5 3.0 4.0 0.01 0.19 0.00 97 1014.1
20260502041857 38 17 2.0 5.0 0.01 0.19 0.00 97 1013.9
20260502040856 38 5 2.0 3.0 0.01 0.19 0.00 97 1013.8
20260502035856 38 9 2.0 5.0 0.02 0.19 0.19 97 1013.7
20260502034856 38 13 3.0 4.0 0.02 0.19 0.19 96 1013.6
20260502031855 38 348 3.0 6.0 0.03 0.18 0.18 96 1013.7
20260502030855 38 5 4.0 8.0 0.03 0.18 0.18 96 1013.5
20260502025855 38 319 6.0 10.0 0.03 0.17 0.17 96 1013.8
20260502024855 39 5 2.0 7.0 0.04 0.17 0.17 97 1013.7
20260502023855 39 5 6.0 8.0 0.05 0.17 0.17 97 1013.6
20260502021854 39 5 4.0 10.0 0.04 0.15 0.15 97 1013.6
20260502020854 39 329 5.0 9.0 0.05 0.15 0.15 96 1013.5
20260502015854 39 348 9.0 11.0 0.05 0.14 0.14 96 1013.3
20260502014854 39 328 8.0 10.0 0.04 0.13 0.13 96 1013.3
20260502013853 39 329 8.0 11.0 0.04 0.12 0.12 96 1013.3
20260502012854 40 5 4.0 10.0 0.05 0.12 0.12 96 1013.3
20260502011853 40 9 5.0 11.0 0.06 0.11 0.11 96 1013.0
20260502010853 40 335 5.0 8.0 0.06 0.10 0.10 95 1012.9
20260502004853 42 10 8.0 9.0 0.08 0.09 0.09 93 1013.0
20260502003853 43 43 2.0 3.0 0.08 0.08 0.08 94 1013.0
20260502002853 43 288 0.0 0.0 0.07 0.07 0.07 93 1012.9
20260502001853 43 288 0.0 0.0 0.05 0.05 0.05 92 1012.9
20260502000852 43 288 0.0 1.0 0.04 0.04 0.04 92 1012.7
20260501235852 43 288 1.0 4.0 0.03 0.03 0.03 91 1012.4
20260501234852 43 281 0.0 4.0 0.01 0.01 0.01 90 1012.4
20260501233852 43 312 3.0 5.0 0.00 0.00 0.00 90 1012.2
20260501232852 43 293 3.0 7.0 0.00 0.00 0.00 89 1012.1
20260501231851 44 288 5.0 5.0 0.00 0.00 0.00 88 1012.0
20260501230851 44 294 2.0 6.0 0.00 0.00 0.00 87 1012.1
20260501225851 45 293 1.0 6.0 0.00 0.00 0.00 85 1011.9
20260501224851 45 318 4.0 8.0 0.00 0.00 0.00 83 1011.8
20260501223851 46 275 2.0 6.0 0.00 0.00 0.00 79 1012.0
20260501222851 47 299 4.0 7.0 0.00 0.00 0.00 76 1012.0
20260501220850 47 300 5.0 11.0 0.00 0.00 0.00 72 1011.9
20260501215850 47 323 1.0 6.0 0.00 0.00 0.00 72 1011.8
20260501214850 48 304 1.0 8.0 0.00 0.00 0.00 70 1011.7
20260501213850 48 268 4.0 7.0 0.00 0.00 0.00 70 1011.8
20260501212849 48 190 4.0 7.0 0.00 0.00 0.00 68 1011.6